Theta_e
305 305 305 305 305 306 306 307 308 309 310 310 311 312 314 316 316 318 321 320 320 318 321 322 325 324 325 329 332 334 337 337 335 335 334 336 335 338 338 339 338 337 336 335 333
303 303 303 304 304 304 304 305 306 307 308 310 310 311 312 315 316 320 321 318 316 316 321 325 324 324 327 331 333 334 337 334 333 332 332 332 335 336 338 339 338 334 332 333 331
303 303 303 304 304 303 304 304 305 305 306 308 310 310 311 314 319 321 320 318 316 317 325 324 324 324 327 329 333 333 335 333 332 331 330 331 333 335 336 336 338 338 334 332 331
303 303 303 303 303 303 303 304 304 305 305 307 308 310 311 313 325 320 319 319 317 317 323 323 323 324 326 329 329 331 331 332 331 330 331 332 334 335 336 337 337 338 335 332 332
302 303 303 303 303 303 303 304 304 304 305 306 307 308 310 321 321 319 317 317 316 318 322 323 324 325 327 327 328 330 330 331 330 330 332 334 334 336 333 336 335 337 335 333 332
303 303 303 303 303 303 303 304 304 305 305 305 306 307 311 319 319 319 318 318 321 321 322 323 324 324 324 325 327 328 329 329 330 332 335 336 334 334 336 335 334 335 335 333 332
303 303 303 303 303 303 304 304 304 305 305 306 306 307 315 317 317 319 318 319 320 321 322 323 323 323 324 326 326 327 328 330 331 331 334 334 334 334 333 333 333 333 334 333 332
302 303 303 303 303 304 304 304 304 305 308 308 307 307 316 316 316 317 318 320 320 321 321 323 323 324 324 326 328 329 329 331 332 334 334 333 333 331 329 330 332 332 331 332 331
302 303 303 303 303 304 304 304 305 307 312 307 309 316 318 315 315 319 320 321 322 321 322 322 323 323 325 328 328 329 330 330 332 332 332 332 331 330 329 330 331 330 329 330 329
303 303 303 303 303 304 304 306 309 314 313 307 316 315 315 316 320 320 321 321 321 322 323 323 324 326 327 327 327 327 329 332 332 332 330 330 329 330 329 331 331 330 328 326 325
302 303 303 303 303 304 306 318 323 324 322 319 317 315 316 318 318 320 321 320 322 323 325 324 326 326 325 327 327 327 327 329 329 328 328 328 329 331 328 329 329 328 326 323 323
303 303 303 303 303 306 310 323 322 324 324 320 318 316 317 318 320 320 321 320 323 324 324 326 326 325 326 326 325 325 326 327 327 327 326 327 330 329 326 325 326 327 324 322 320
303 303 304 303 303 308 322 321 318 321 329 320 318 317 316 317 319 321 320 320 323 324 324 325 325 325 324 324 324 325 325 326 326 327 327 327 330 329 325 322 322 322 321 320 319
303 303 304 303 304 318 322 317 317 318 333 321 321 320 316 317 320 322 321 321 322 323 324 324 324 323 323 323 323 323 324 325 325 325 325 328 329 329 328 325 321 320 320 319 317
303 303 303 303 316 317 322 313 315 326 328 321 320 316 315 321 321 322 322 321 323 322 323 323 322 322 322 322 323 323 324 324 325 326 327 326 326 326 327 325 322 319 318 317 316
304 303 303 305 310 320 315 312 325 332 327 322 320 319 319 322 322 321 321 321 322 323 322 323 322 323 323 323 323 323 323 324 326 326 326 326 326 328 326 323 322 318 316 315 314
304 304 303 303 316 312 313 324 329 327 324 321 321 319 321 322 322 322 322 323 322 322 323 323 322 322 321 322 323 323 324 326 326 327 326 326 325 327 322 320 318 317 315 313 312
304 304 303 303 305 311 313 325 325 323 323 322 322 321 321 323 323 322 323 323 323 323 324 323 323 323 323 323 324 325 325 326 326 326 325 326 329 326 321 317 315 314 313 312 311
304 304 303 303 305 310 321 325 321 322 323 322 323 322 322 321 323 322 322 323 324 323 323 322 323 323 323 324 324 325 324 326 326 325 325 326 326 325 323 320 317 315 314 313 311
311 313 313 303 306 312 323 317 323 323 322 323 323 324 324 322 322 323 322 323 323 323 323 325 324 323 324 324 324 325 325 326 326 326 327 325 327 328 324 323 320 317 315 312 311
309 316 318 303 307 317 317 317 322 320 320 323 324 323 324 323 324 323 322 322 322 323 323 325 325 324 324 325 325 325 326 325 325 324 325 325 328 323 323 322 321 317 314 312 311
316 320 311 305 313 313 315 317 317 319 319 322 324 324 323 323 324 323 323 324 321 322 323 325 326 324 325 323 323 324 324 324 325 326 326 325 328 322 321 319 318 316 314 312 311
315 318 309 310 314 313 314 315 318 319 321 322 323 324 325 324 325 324 324 321 320 323 325 323 324 325 325 325 324 324 322 322 323 323 322 323 328 321 319 318 317 316 313 311 310
318 320 313 312 313 315 312 316 319 315 320 321 322 324 325 325 325 325 323 321 321 321 320 324 325 325 326 324 322 322 320 319 320 321 322 322 325 322 321 319 317 315 313 311 310
319 318 317 315 313 314 313 314 318 320 320 320 322 323 324 325 325 325 323 321 321 319 322 325 325 322 321 321 320 319 318 319 320 320 322 321 322 319 319 319 317 315 313 311 310
318 317 318 317 314 314 311 313 316 319 321 321 322 322 323 325 324 325 323 323 323 321 322 323 324 322 321 320 319 319 319 320 320 320 320 319 321 317 317 316 315 314 312 311 310
317 318 320 315 315 315 315 314 314 318 320 321 322 322 324 324 324 324 324 323 323 323 322 323 324 323 322 319 319 321 320 320 320 319 319 319 318 317 318 317 316 315 313 312 310
Wind_Speed
17 17 16 17 17 17 16 14 16 15 14 13 13 13 14 14 12 12 9 8 11 11 11 11 12 11 11 15 17 13 12 15 10 7 15 4 3 5 2 5 3 5 4 12 28
16 15 15 14 15 15 15 14 16 16 14 14 13 13 13 15 14 14 15 16 15 14 12 15 14 13 16 15 14 16 13 19 9 11 8 3 3 3 4 12 8 6 8 24 29
16 14 13 13 13 13 14 13 14 16 15 14 13 12 12 13 14 4 10 13 17 15 15 13 9 13 17 14 16 15 15 19 9 11 11 12 7 2 6 7 4 17 17 24 27
16 14 13 13 13 12 13 13 12 14 14 13 12 11 10 8 4 1 6 9 15 17 15 15 14 15 17 16 17 17 19 17 18 4 11 12 11 8 4 9 5 3 23 25 25
16 15 13 13 13 12 12 12 12 13 13 12 11 11 7 8 14 6 4 5 15 17 17 17 16 16 17 16 18 11 17 19 11 9 9 7 12 7 12 7 4 10 21 22 21
16 15 14 12 13 12 12 12 13 13 12 11 11 10 7 15 3 5 5 5 10 14 16 17 15 15 18 15 16 15 12 17 16 10 4 9 15 4 10 10 9 10 12 15 17
16 14 14 11 13 12 12 12 12 12 12 11 10 10 10 17 3 7 7 7 9 15 16 15 15 13 12 16 16 15 15 16 17 18 11 6 17 18 15 7 6 9 11 12 13
14 13 12 11 12 12 10 11 12 12 10 10 9 7 9 5 9 12 10 12 12 12 13 8 12 15 18 15 11 14 15 15 17 4 8 8 14 10 15 11 7 6 7 10 12
12 11 11 10 10 10 9 10 11 9 7 4 4 7 9 9 8 8 11 13 13 12 10 10 12 16 17 14 15 16 15 19 2 9 11 10 17 7 10 2 9 7 9 11 11
10 9 9 8 8 8 8 8 7 5 3 3 4 6 10 8 6 7 10 13 14 13 12 13 13 13 14 14 15 19 9 15 23 17 3 11 14 13 5 8 8 11 12 12 11
9 8 8 7 6 5 4 4 2 5 13 6 3 3 1 4 7 7 12 14 15 17 16 20 13 16 18 14 7 12 14 13 16 13 1 16 7 19 16 17 14 14 13 12 13
9 7 7 6 5 2 1 3 2 3 7 12 12 10 8 4 5 10 12 17 19 17 18 12 13 18 3 6 7 12 15 16 16 8 1 14 17 20 20 21 17 16 14 15 14
9 7 6 5 5 4 1 2 3 3 8 6 5 6 9 8 5 12 14 19 18 18 18 14 5 8 1 9 11 14 15 14 14 7 11 14 12 16 19 22 20 18 15 12 12
9 7 6 5 3 4 3 2 4 1 5 8 7 5 9 7 7 4 10 12 10 15 16 13 13 4 8 14 12 13 7 5 12 13 11 6 2 18 17 19 17 16 16 12 11
9 7 7 10 6 4 5 3 2 0 6 7 7 5 14 9 10 12 8 8 11 10 6 14 11 10 14 17 8 12 4 9 13 13 15 14 10 10 18 15 13 15 15 11 10
10 8 8 8 8 5 6 1 1 6 4 6 7 11 13 11 7 11 11 7 3 4 10 13 3 6 10 7 6 11 9 14 12 13 13 17 14 11 8 10 10 13 12 10 10
10 10 11 10 5 9 5 2 5 6 7 9 11 15 13 9 7 15 12 12 10 9 12 12 11 9 5 10 11 11 13 10 12 11 11 8 2 9 11 10 10 10 10 9 9
10 10 11 13 11 10 5 5 7 4 8 5 13 13 11 13 9 6 7 7 7 8 6 9 10 7 4 9 11 10 14 10 11 9 8 7 5 6 12 12 11 10 9 8 9
9 7 8 11 10 10 6 7 2 9 7 12 13 13 9 10 6 9 8 2 5 3 7 2 4 6 4 4 7 3 8 6 8 8 7 4 9 12 10 11 9 8 7 8 9
6 5 6 11 11 8 6 4 2 3 2 7 12 7 12 13 10 9 10 3 3 2 5 5 2 0 4 5 4 6 7 6 3 5 8 3 8 9 8 8 7 7 8 8 9
9 7 8 12 11 7 7 4 4 4 3 4 4 7 6 8 7 7 6 6 0 3 3 6 5 8 6 4 9 2 3 4 6 5 9 10 7 7 7 7 8 8 8 8 9
5 4 8 16 8 6 7 2 1 4 3 1 4 6 8 7 4 3 6 7 2 2 1 4 5 2 8 4 5 6 6 7 6 5 1 7 6 7 8 9 9 9 7 7 8
6 5 10 13 6 8 3 5 3 6 4 5 4 2 4 6 4 4 7 4 3 2 4 4 2 5 9 8 5 4 5 4 5 6 7 6 6 7 8 9 7 8 7 7 8
5 4 6 8 5 6 9 10 8 4 3 1 5 5 7 7 3 8 9 5 6 8 3 3 2 5 7 6 5 3 5 7 7 5 4 6 11 7 6 6 6 6 6 7 7
5 3 6 8 10 9 8 12 12 7 2 4 4 6 8 5 7 7 10 11 6 4 2 2 2 4 7 8 7 5 5 6 7 6 6 7 10 8 6 6 6 6 6 6 5
3 4 4 6 9 11 5 10 13 7 6 7 5 5 4 8 3 10 10 7 5 5 3 1 3 6 4 4 5 4 4 6 7 6 6 5 10 7 7 7 5 4 4 3 3
4 4 3 6 10 9 8 10 11 6 1 3 6 7 9 8 12 13 12 7 5 4 4 3 6 5 4 0 1 4 3 5 6 7 8 6 7 3 6 5 5 5 2 2 3
Wind_Direction
267 269 272 276 280 281 283 284 288 290 295 298 300 305 306 303 296 297 271 237 220 222 210 209 212 226 223 230 235 257 272 263 295 263 73 94 303 127 4 137 169 157 22 154 162
264 267 271 274 280 282 281 281 282 283 284 290 297 303 308 308 300 276 243 237 224 210 193 189 208 211 219 229 223 240 246 266 354 334 342 319 261 88 241 169 169 137 113 147 158
261 263 268 271 276 281 284 282 282 281 280 283 291 300 307 314 302 209 234 240 214 200 185 197 229 215 232 228 222 242 256 287 308 33 328 321 303 219 259 293 103 178 160 163 166
257 261 265 270 273 278 282 285 286 283 281 278 281 289 298 299 289 266 291 219 203 194 195 215 227 224 238 236 236 241 266 276 297 359 306 307 337 296 229 38 26 87 169 170 174
256 258 262 267 271 276 280 286 287 285 284 277 273 278 297 258 257 245 323 179 180 188 208 210 219 229 246 249 245 236 267 281 281 290 298 322 279 315 297 114 84 140 161 172 177
254 256 259 265 269 275 280 283 284 285 285 279 270 267 277 261 236 224 192 185 196 202 210 220 228 238 266 277 277 256 263 273 272 277 272 290 297 237 83 106 105 136 164 173 177
252 251 258 263 266 271 275 279 282 286 286 279 261 253 255 235 239 224 216 206 208 209 222 225 232 240 246 253 258 261 267 263 235 231 239 288 287 62 39 37 92 153 167 172 175
251 250 256 260 267 271 273 285 289 290 289 276 246 223 251 242 227 238 226 224 216 217 229 242 234 247 251 265 260 245 246 265 281 125 184 251 302 112 360 270 196 134 136 150 158
249 253 256 258 267 272 278 286 290 286 294 262 195 194 248 228 233 215 209 211 204 212 222 229 230 236 234 241 248 238 256 254 151 358 295 263 298 20 92 169 120 146 132 131 138
244 253 256 258 262 270 282 292 288 265 278 163 213 217 240 214 194 212 214 204 198 198 210 221 223 229 233 247 247 255 303 351 305 162 233 292 286 93 95 87 58 118 116 125 139
245 247 254 251 245 262 275 323 262 231 214 235 158 252 137 237 244 222 197 200 209 203 219 201 225 235 242 246 295 325 301 265 282 300 193 280 316 77 73 65 97 108 114 118 126
249 240 246 234 217 225 109 272 352 312 271 236 236 243 259 265 223 204 193 198 206 217 216 220 234 255 333 357 295 280 273 278 285 280 255 281 94 78 68 66 55 93 100 111 121
244 239 237 221 195 180 117 188 324 307 255 173 209 215 204 208 234 174 192 206 202 226 227 239 274 32 63 249 239 253 265 276 287 298 231 253 129 107 82 69 70 74 88 105 122
237 232 218 190 164 196 196 281 308 157 246 145 183 160 190 201 223 193 203 206 220 234 233 238 256 192 242 253 270 281 310 318 274 267 271 125 265 143 104 81 61 69 77 93 111
227 221 203 183 185 178 198 248 298 165 214 144 128 153 165 213 124 187 188 204 232 216 243 229 230 240 243 251 265 267 342 283 281 268 274 279 259 106 59 55 63 65 75 87 108
221 209 201 194 195 217 194 212 135 228 181 141 142 164 170 205 199 148 182 224 6 187 226 275 197 254 255 273 239 270 266 246 252 255 257 253 262 60 35 27 66 72 76 88 107
218 205 202 186 173 202 180 159 219 254 155 158 156 165 172 166 139 165 179 193 205 204 209 205 219 218 261 257 223 242 257 258 248 237 249 54 284 61 64 56 50 69 82 95 116
214 206 199 200 201 184 172 216 244 107 177 115 154 174 187 161 150 180 197 187 226 269 270 225 175 182 135 263 305 220 246 276 298 301 325 173 90 84 83 77 73 77 90 109 123
202 196 195 201 187 179 204 214 61 175 144 162 163 173 152 176 210 203 231 229 60 241 299 212 135 105 63 302 268 214 244 348 297 248 272 139 100 135 104 94 83 85 98 109 126
158 191 196 188 178 174 229 261 159 25 270 224 176 218 169 174 190 211 190 83 125 315 306 13 221 296 94 254 152 308 5 258 244 274 292 125 134 73 60 72 101 99 103 116 131
163 198 225 176 163 200 219 142 174 144 243 253 155 195 153 163 201 190 167 112 100 108 294 319 265 132 205 5 355 235 184 319 311 305 302 302 88 43 60 62 88 96 108 128 140
205 201 183 158 190 204 219 183 187 149 185 172 311 148 182 158 179 139 148 39 43 327 287 51 314 274 63 94 356 41 10 320 310 325 218 299 86 60 71 79 94 105 112 127 145
209 122 166 159 197 205 134 175 211 180 170 175 152 231 170 164 147 140 111 54 89 50 20 16 218 217 189 180 143 31 4 313 289 275 282 315 98 95 94 89 92 112 121 137 149
185 148 147 202 274 260 181 178 166 179 139 184 131 168 147 162 161 159 130 91 81 86 58 286 27 329 13 59 354 55 2 340 317 286 26 43 128 104 87 95 106 111 129 143 158
211 164 145 180 205 223 204 174 173 159 190 203 167 200 163 151 143 152 127 131 124 129 87 355 85 56 58 59 55 46 27 36 53 17 8 93 77 72 58 79 98 121 131 141 160
219 170 198 139 171 190 178 199 186 127 171 167 185 151 173 148 228 161 152 161 128 141 91 37 120 118 98 118 96 90 79 79 55 58 75 118 110 82 88 102 105 115 132 145 161
237 201 253 152 173 191 183 159 184 159 74 25 170 179 104 66 54 72 65 67 112 135 109 141 158 198 156 103 40 170 57 75 91 46 353 54 71 144 127 76 66 107 101 107 134